• Join FlightAware (Why Join?)
  • Login
  • US Flag 
12:03PM EDT


 

Airport Tracker/Info


-or-


 

Live Flight TrackerFlight Track Log ✈ UAL4236 ✈ 17-Apr-2013 ✈ KIAH - KELP

Flight Track Log - Related Links

Times and Time Zones

All times are in EDT time to prevent confusion due to time zone crossing. See the UAL4236 flight status page for this flight to view local times or setup timezone preferences in your user account.

Time Position Orientation Groundspeed Altitude Reporting Facility
EDT Latitude Longitude Course Direction KTS MPH feet Rate Location/Type
10:20AM 29.9594 -95.3414 276° West 159 183 700  Level Houston Center
10:21AM 29.9086 -95.3836 216° Southwest 244 281 3,100 1,740 Climbing Houston Center
10:22AM 29.9044 -95.4053 257° West 255 293 3,700 2,580 Climbing Houston Center
10:22AM 29.9122 -95.4678 278° West 273 314 5,800 3,060 Climbing Houston Center
10:23AM 29.9197 -95.5072 282° West 270 311 6,900 2,640 Climbing Houston Center
10:23AM 29.9283 -95.5525 282° West 272 313 8,500 2,280 Climbing Houston Center
10:24AM 29.9397 -95.5906 289° West 270 311 9,300 1,560 Climbing Houston Center
10:24AM 29.9531 -95.6436 286° West 290 334 10,100 960 Climbing Houston Center
10:25AM 30.0372 -95.8460 276° West  Level FlightAware Approximate
10:25AM 29.9664 -95.6828 291° West 299 344 10,300  Level Houston Center
10:25AM 29.9833 -95.7461 287° West 348 400 11,200 1,500 Climbing Houston Center
10:26AM 30.0458 -95.9491 276° West  Level FlightAware Approximate
10:26AM 29.9953 -95.7869 289° West 337 388 11,900  Level Houston Center
10:27AM 30.0239 -95.8922 287° West 344 396 13,800 1,800 Climbing Houston Center
10:28AM 30.0589 -96.0192 288° West 347 399 15,700 1,680 Climbing Houston Center
10:29AM 30.0819 -96.1244 284° West 348 400 17,300 1,560 Climbing Houston Center
10:30AM 30.0983 -96.2344 280° West 350 403 19,000 1,440 Climbing Houston Center
10:31AM 30.1136 -96.3436 279° West 348 400 20,300 1,200 Climbing Houston Center
10:32AM 30.1319 -96.4636 280° West 358 412 21,500 1,140 Climbing Houston Center
10:33AM 30.1506 -96.5817 280° West 370 426 22,700 1,200 Climbing Houston Center
10:34AM 30.1714 -96.7225 280° West 375 432 24,000 1,140 Climbing Houston Center
10:35AM 30.1900 -96.8447 280° West 382 440 25,100 1,140 Climbing Houston Center
10:36AM 30.2078 -96.9672 280° West 382 440 26,400 1,260 Climbing Houston Center
10:37AM 30.2258 -97.0869 280° West 375 432 27,800 1,260 Climbing Houston Center
10:38AM 30.2431 -97.2061 280° West 370 426 29,100 1,200 Climbing Houston Center
10:39AM 30.2592 -97.3214 279° West 363 418 30,300 1,200 Climbing Houston Center
10:40AM 30.2764 -97.4353 280° West 357 411 31,700 1,380 Climbing Houston Center
10:42AM 30.2925 -97.5456 280° West 347 399 33,200 1,500 Climbing Houston Center
10:43AM 30.3100 -97.6692 279° West 332 382 34,800 1,320 Climbing Houston Center
10:44AM 30.3244 -97.7689 280° West 317 365 36,000 540 Climbing Houston Center
10:45AM 30.3381 -97.8689 279° West 312 359 36,000  Level Houston Center
10:46AM 30.3531 -97.9756 279° West 328 377 36,000  Level Houston Center
10:47AM 30.3689 -98.0864 279° West 343 395 36,000  Level Houston Center
10:48AM 30.3844 -98.1983 279° West 347 399 36,000 -720 Level Houston Center
10:49AM 30.3997 -98.3119 279° West 353 406 34,600 -1,440 Descending Houston Center
10:50AM 30.4161 -98.4308 279° West 367 422 33,100 -1,620 Descending Houston Center
10:51AM 30.4347 -98.5744 279° West 382 440 31,300 -1,620 Descending Houston Center
10:52AM 30.4522 -98.7006 279° West 391 450 29,800 -1,500 Descending Houston Center
10:53AM 30.4692 -98.8278 279° West 396 456 28,300 -900 Descending Houston Center
10:54AM 30.4883 -98.9583 280° West 405 466 28,000 -180 Descending Houston Center
10:55AM 30.5047 -99.0903 278° West 408 470 28,000  Level Houston Center
10:56AM 30.5242 -99.2281 279° West 412 474 28,000  Level Houston Center
10:57AM 30.5408 -99.3581 278° West 411 473 28,000  Level Houston Center
10:58AM 30.5572 -99.4883 278° West 411 473 28,000  Level Houston Center
10:59AM 30.5772 -99.6447 278° West 411 473 28,000  Level Houston Center
11:00AM 30.5953 -99.7761 279° West 413 475 28,000  Level Houston Center
11:01AM 30.6194 -99.9047 282° West 412 474 28,000  Level Houston Center
11:02AM 30.6456 -100.0342 283° West 413 475 28,000  Level Houston Center
11:03AM 30.6725 -100.1631 284° West 414 476 28,000  Level Houston Center
11:04AM 30.7025 -100.3167 283° West 413 475 28,000  Level Houston Center
11:05AM 30.7289 -100.4458 283° West 411 473 28,000  Level Houston Center
11:06AM 30.7533 -100.5797 282° West 431 496 28,000  Level Houston Center
11:07AM 30.7803 -100.7081 284° West 416 479 28,000  Level Houston Center
11:08AM 30.8044 -100.8392 282° West 416 479 28,000  Level Houston Center
11:09AM 30.8344 -100.9933 283° West 411 473 28,000  Level Houston Center
11:10AM 30.8600 -101.1219 283° West 410 472 28,000 -300 Level Houston Center
11:12AM 30.8631 -101.2533 272° West 416 479 27,500 -540 Descending Houston Center
11:13AM 30.8381 -101.3817 257° West 413 475 26,900 -600 Descending Houston Center
11:14AM 30.8164 -101.5061 259° West 405 466 26,300 -780 Descending Houston Center
11:15AM 30.8286 -101.6631 275° West 407 468 25,200 -960 Descending Albuquerque Center
11:16AM 30.8600 -101.7917 286° West 408 470 24,300 -600 Descending Albuquerque Center
11:17AM 30.8889 -101.9197 285° West 409 471 24,000 -180 Descending Albuquerque Center
11:18AM 30.9186 -102.0478 285° West 409 471 24,000  Level Albuquerque Center
11:19AM 30.9483 -102.1764 285° West 409 471 24,000  Level Albuquerque Center
11:20AM 30.9847 -102.3317 285° West 409 471 24,000  Level Albuquerque Center
11:21AM 31.0092 -102.4375 285° West 410 472 24,000  Level Albuquerque Center
11:22AM 31.0442 -102.5908 285° West 410 472 24,000  Level Albuquerque Center
11:23AM 31.0731 -102.7194 285° West 409 471 24,000  Level Albuquerque Center
11:24AM 31.1022 -102.8483 285° West 410 472 24,000  Level Albuquerque Center
11:25AM 31.1308 -102.9775 285° West 410 472 24,000  Level Albuquerque Center
11:26AM 31.1592 -103.1067 284° West 411 473 24,000  Level Albuquerque Center
11:27AM 31.1889 -103.2356 285° West 411 473 24,000  Level Albuquerque Center
11:28AM 31.2236 -103.3897 285° West 410 472 24,000  Level Albuquerque Center
11:29AM 31.2508 -103.5181 284° West 408 470 24,000  Level Albuquerque Center
11:30AM 31.2800 -103.6461 285° West 407 468 24,000  Level Albuquerque Center
11:31AM 31.3081 -103.7772 284° West 408 470 24,000  Level Albuquerque Center
11:32AM 31.3358 -103.9039 284° West 405 466 24,000  Level Albuquerque Center
11:33AM 31.3633 -104.0317 284° West 406 467 24,000  Level Albuquerque Center
11:34AM 31.3911 -104.1583 284° West 404 465 24,000  Level Albuquerque Center
11:35AM 31.4261 -104.3133 285° West 408 470 24,000  Level Albuquerque Center
11:36AM 31.4531 -104.4433 284° West 411 473 24,000  Level Albuquerque Center
11:37AM 31.4672 -104.5739 277° West 411 473 24,000  Level Albuquerque Center
11:38AM 31.4800 -104.7047 277° West 409 471 24,000  Level Albuquerque Center
11:40AM 31.4939 -104.8317 277° West 405 466 24,000  Level Albuquerque Center
11:41AM 31.5061 -104.9531 277° West 392 451 24,000  Level Albuquerque Center
11:42AM 31.5203 -105.0989 277° West 381 438 24,000 -600 Level Albuquerque Center
11:43AM 31.5331 -105.2217 277° West 382 440 22,800 -1,500 Descending Albuquerque Center
11:44AM 31.5442 -105.3453 276° West 383 441 20,900 -1,980 Descending Albuquerque Center
11:45AM 31.5547 -105.4644 276° West 372 428 18,800 -2,160 Descending Albuquerque Center
11:45AM 31.5597 -105.5200 276° West 362 417 18,000 -1,800 Descending Albuquerque Center
11:46AM 31.5664 -105.5775 278° West 354 407 17,000 -1,920 Descending Albuquerque Center
11:46AM 31.5722 -105.6317 277° West 347 399 16,100 -1,800 Descending Albuquerque Center
11:47AM 31.5778 -105.6881 277° West 344 396 15,200 -1,740 Descending Albuquerque Center
11:47AM 31.5817 -105.7389 275° West 334 384 14,400 -2,160 Descending Albuquerque Center
11:48AM 31.5947 -105.8164 281° West 336 387 13,000 -1,680 Descending Albuquerque Center
11:48AM 31.6092 -105.8394 306° West 319 367 12,700 -1,620 Descending Albuquerque Center
11:49AM 31.6369 -105.8975 299° West 289 333 11,400 -1,740 Descending Albuquerque Center
11:49AM 31.6469 -105.9172 301° West 264 304 11,000 -1,500 Descending Albuquerque Center
11:50AM 31.6739 -105.9714 300° West 267 307 9,900 -1,320 Descending Albuquerque Center
11:50AM 31.6844 -105.9925 300° West 260 299 9,700 -1,380 Descending Albuquerque Center
11:51AM 31.7106 -106.0442 301° West 260 299 8,500 -1,020 Descending Albuquerque Center
11:52AM 31.7444 -106.1139 300° West 245 282 7,900 -1,020 Descending Albuquerque Center
11:53AM 31.7731 -106.1717 300° West 208 239 6,500 -1,380 Descending Albuquerque Center